Wind_Speed
6 6 6 6 6 5 5 5 5 5 5 5 5 5 5 4 4 4 4 4 5 5 6 6 6 7 8 7 7 8 8 8 9 10 10 10 10 10 10 10 10 10 10
7 6 7 7 7 6 5 5 5 5 5 5 5 5 5 6 4 5 4 5 6 6 7 8 8 8 8 7 7 8 8 8 9 10 10 10 11 11 11 11 11 11 11
7 7 7 7 7 7 6 5 5 5 6 6 6 6 6 6 5 5 5 6 7 7 8 8 8 8 8 8 8 9 9 9 10 10 11 11 11 11 11 12 13 12 12
7 8 8 8 8 6 6 6 6 6 7 7 6 6 6 5 5 6 6 7 7 7 8 8 8 8 8 8 9 10 10 10 10 11 11 11 11 11 11 12 13 13 13
7 8 8 9 8 7 7 6 7 8 8 7 7 6 7 7 7 7 8 8 8 8 8 9 8 8 9 9 10 10 10 11 11 11 11 11 11 12 12 12 13 14 14
8 8 8 8 8 7 7 7 8 8 8 8 8 8 8 8 8 8 8 9 9 8 8 8 8 8 9 10 10 11 11 11 11 11 11 11 11 12 13 12 12 13 13
9 8 8 8 8 7 8 8 8 8 8 8 8 9 9 9 10 10 10 9 10 8 9 9 9 9 10 10 10 11 11 11 10 11 11 12 12 12 12 13 12 13 14
9 9 8 8 8 8 9 9 9 8 9 9 10 10 10 10 10 10 10 10 9 8 9 10 11 10 11 11 11 11 11 11 11 11 11 11 12 12 12 12 13 13 13
9 9 8 8 8 9 9 10 10 9 10 10 10 11 10 10 10 11 11 11 10 11 12 12 12 12 12 13 13 13 11 12 13 12 12 12 12 12 12 12 13 13 13
9 9 9 9 10 10 11 11 11 11 11 11 11 11 11 12 11 11 11 11 12 12 13 13 14 14 14 14 15 15 13 13 13 13 13 13 12 12 13 13 13 13 14
9 10 10 11 11 11 12 12 11 12 12 12 12 13 13 13 12 12 12 13 13 14 15 15 15 14 15 15 16 15 15 14 14 14 14 13 13 13 13 13 13 13 14
11 11 12 12 12 13 13 13 12 13 13 13 13 14 14 14 14 13 14 14 15 16 16 16 15 15 15 15 16 15 14 15 15 15 15 15 15 14 14 13 13 14 14
13 12 12 12 13 13 14 13 13 14 15 15 15 15 15 15 15 15 15 16 17 17 17 17 17 16 16 16 16 16 15 15 16 16 16 16 16 15 15 15 15 15 15
14 13 13 14 14 14 14 14 15 16 16 16 16 16 16 16 16 17 17 17 19 19 19 18 17 18 17 17 17 17 17 17 17 17 17 17 17 17 16 16 16 16 16
14 14 15 15 15 15 15 15 16 16 17 17 17 17 17 17 17 18 19 19 20 21 20 19 18 18 19 19 18 19 19 19 19 19 19 19 18 18 18 17 17 17 16
15 15 15 15 16 16 17 17 17 18 19 19 18 18 18 18 18 19 20 20 21 22 22 21 20 20 20 21 21 20 20 20 20 20 20 20 19 19 19 18 18 18 18
16 15 16 16 17 17 18 19 19 19 20 20 19 19 20 20 20 21 21 22 22 22 22 22 21 21 21 22 22 22 21 21 20 21 21 21 21 20 20 20 19 19 19
17 17 17 17 18 19 19 20 20 20 20 21 22 22 22 22 22 22 22 23 23 23 23 23 22 22 22 22 22 23 22 22 22 22 22 22 22 22 21 21 21 20 20
19 19 19 19 20 20 20 20 21 21 22 22 23 23 23 23 23 23 24 24 24 24 24 24 23 23 23 23 23 24 24 24 23 23 23 23 23 22 22 22 22 22 22
21 21 21 21 21 21 21 22 22 23 23 24 24 24 24 24 24 24 25 25 25 25 25 25 24 24 24 24 25 25 25 24 24 24 24 24 24 23 23 23 22 23 23
21 21 21 22 22 22 22 23 23 23 24 25 25 24 25 24 25 25 26 26 26 25 25 25 25 25 25 25 25 25 25 24 24 24 24 23 24 24 23 23 23 23 24
23 23 24 24 23 23 23 24 24 24 25 25 26 25 25 25 25 25 26 25 26 26 26 26 26 26 25 25 25 25 25 24 24 24 24 23 24 24 24 23 24 24 25
24 25 25 25 24 25 25 25 26 26 26 26 26 25 25 24 24 25 25 26 26 27 27 26 26 26 26 26 26 26 26 25 25 25 25 25 25 26 26 25 25 25 26
26 26 26 26 26 26 26 26 26 27 26 26 25 25 24 25 25 26 27 27 27 27 27 27 26 26 27 27 26 26 27 27 27 27 26 26 26 26 26 26 26 26 26
28 27 27 26 26 26 27 26 26 26 26 26 26 25 25 26 26 27 27 27 27 27 27 27 27 27 27 27 27 27 27 27 27 26 26 26 26 25 25 26 26 26 26
28 28 28 28 28 27 27 27 26 26 26 26 26 26 26 26 27 27 27 27 27 27 27 27 27 28 28 28 28 28 27 26 26 26 25 26 26 26 26 26 26 26 26
Wind_Direction
15 12 360 1 5 2 357 355 344 350 350 351 339 333 345 341 337 331 329 324 318 312 311 309 306 308 298 293 292 289 286 283 283 280 277 273 272 269 264 266 262 259 257
1 356 358 354 353 349 352 353 351 356 352 348 348 346 344 344 336 336 318 319 328 323 317 316 309 304 299 297 299 296 290 286 283 285 283 279 273 269 270 270 264 260 257
355 352 349 346 345 343 348 345 344 341 340 349 353 350 342 339 334 334 327 319 321 324 322 318 312 309 305 300 299 295 291 291 290 288 287 285 280 273 273 271 269 262 258
348 347 350 352 355 356 352 353 349 346 347 348 345 341 339 334 327 325 319 317 317 320 322 320 315 309 305 299 296 296 289 290 291 289 288 287 282 274 274 272 269 263 260
349 346 346 351 356 357 353 355 353 345 338 338 341 341 338 331 324 324 321 319 319 319 319 324 320 316 307 301 299 300 293 288 291 290 288 287 285 276 273 273 269 264 260
346 343 345 348 351 353 354 351 342 336 334 333 334 335 334 334 325 319 320 319 320 320 322 324 321 318 313 307 303 304 302 295 291 290 288 284 282 279 278 275 270 265 260
347 348 347 346 347 350 347 344 339 336 335 333 329 328 325 325 324 319 315 315 312 316 322 321 318 316 314 309 303 302 304 302 295 295 290 283 281 282 282 280 273 266 261
346 349 349 349 348 345 344 342 336 334 333 332 328 324 323 322 326 323 319 317 314 311 313 316 315 312 312 309 307 303 299 297 295 296 296 295 285 281 283 280 273 270 265
346 348 346 343 342 340 337 335 334 333 330 329 327 327 327 326 324 321 321 317 313 314 310 309 309 307 305 306 307 301 296 295 293 294 293 295 291 288 282 280 276 271 268
349 347 341 337 336 333 331 330 330 330 328 326 325 325 323 321 318 316 315 313 310 311 309 306 301 302 307 306 304 304 300 298 295 293 291 290 287 288 282 277 276 273 270
338 335 331 332 330 327 327 327 328 326 324 322 322 320 318 316 313 312 312 311 309 307 306 303 301 303 305 305 305 304 301 297 295 294 293 288 286 288 280 276 273 272 269
325 324 323 323 324 323 322 325 327 327 326 322 319 317 315 314 311 310 309 308 308 306 304 303 301 301 303 303 304 303 300 297 294 292 293 290 287 287 281 279 275 273 270
320 318 318 319 320 320 320 320 321 322 322 321 318 314 313 312 310 308 305 304 304 304 303 302 298 297 297 298 298 297 298 296 292 290 291 291 288 286 285 281 277 275 271
319 316 315 314 315 315 316 317 318 318 318 316 314 312 308 307 308 306 305 304 303 302 300 298 295 293 293 293 293 294 295 295 294 291 289 289 288 287 285 282 277 272 270
316 315 314 311 312 312 313 314 315 317 316 313 311 312 313 309 307 306 306 306 305 303 301 298 295 294 293 295 292 291 292 292 294 293 291 290 288 285 283 280 276 271 269
312 313 311 311 310 310 312 314 314 315 314 311 309 310 311 310 305 303 304 302 303 303 301 299 297 295 294 295 295 293 292 291 291 291 289 289 288 286 282 281 279 273 269
308 308 309 310 310 312 313 313 312 311 311 311 309 308 308 307 304 304 302 301 302 303 301 299 299 297 296 296 295 293 290 289 288 288 287 286 285 284 282 279 280 274 268
306 307 308 308 308 308 308 308 308 308 310 309 308 306 305 304 304 303 303 302 302 301 300 299 297 297 297 295 296 292 291 290 288 287 285 285 284 283 281 279 277 274 270
303 304 304 305 304 304 304 305 307 308 308 307 306 305 303 303 304 303 303 303 302 300 299 299 297 295 295 294 294 293 291 290 289 288 285 284 283 282 281 279 276 275 273
300 303 305 305 304 305 305 304 305 305 306 306 306 305 304 301 302 303 303 301 300 299 299 298 296 295 294 294 294 293 291 290 290 288 287 285 283 281 280 279 277 275 274
303 304 303 304 304 304 303 303 304 304 305 305 306 305 304 303 301 301 301 300 299 299 299 298 297 295 294 294 294 294 292 289 289 288 286 284 283 282 279 278 277 274 272
301 300 300 302 302 302 301 302 303 304 305 305 305 304 304 303 303 303 302 300 300 300 300 298 297 296 295 295 294 292 291 289 286 284 284 283 282 280 278 276 275 275 272
298 299 299 299 301 301 300 300 301 303 303 305 305 303 303 303 304 305 304 303 301 300 299 297 296 295 295 294 294 292 290 288 287 285 283 283 283 281 278 276 275 273 271
297 297 296 297 298 298 298 298 299 301 302 303 303 302 301 302 303 304 305 305 303 300 298 296 295 294 294 293 293 292 289 289 288 286 284 283 283 282 279 278 274 272 272
295 295 295 295 297 297 297 297 298 299 300 301 301 301 300 302 303 304 305 304 302 299 296 294 294 294 293 292 292 291 291 290 288 287 286 284 283 281 280 278 277 275 274
294 295 295 295 295 295 296 296 298 299 299 300 300 300 300 302 303 303 304 304 301 299 296 294 293 293 293 292 292 292 291 289 287 286 286 285 283 282 281 280 279 276 274
Height
5887 5886 5885 5885 5885 5885 5884 5884 5883 5883 5883 5883 5883 5883 5882 5882 5882 5882 5881 5882 5881 5882 5881 5881 5881 5880 5880 5880 5880 5880 5880 5880 5880 5880 5879 5879 5879 5880 5880 5880 5881 5881 5882
5887 5887 5886 5886 5885 5885 5884 5883 5883 5883 5883 5882 5882 5882 5882 5881 5881 5881 5881 5881 5881 5880 5880 5880 5879 5879 5878 5878 5878 5878 5878 5878 5877 5877 5877 5877 5877 5877 5877 5877 5878 5878 5879
5888 5887 5887 5886 5885 5884 5884 5883 5882 5883 5882 5882 5881 5881 5881 5881 5881 5880 5880 5880 5879 5879 5879 5878 5877 5877 5877 5876 5876 5876 5876 5875 5875 5875 5874 5874 5874 5874 5874 5875 5875 5875 5876
5888 5888 5887 5886 5885 5884 5883 5883 5883 5882 5882 5881 5881 5881 5881 5880 5880 5879 5879 5879 5878 5878 5877 5876 5876 5875 5875 5874 5874 5874 5873 5873 5872 5872 5871 5871 5871 5871 5871 5871 5872 5872 5872
5888 5888 5887 5886 5885 5884 5883 5883 5883 5882 5882 5881 5881 5880 5880 5879 5878 5878 5878 5877 5877 5876 5875 5875 5874 5873 5873 5872 5872 5871 5870 5870 5870 5869 5868 5868 5868 5868 5868 5868 5868 5868 5869
5888 5887 5887 5886 5885 5884 5884 5883 5882 5882 5881 5881 5880 5879 5879 5878 5877 5876 5876 5875 5875 5874 5873 5873 5872 5872 5871 5870 5869 5869 5868 5867 5867 5866 5865 5865 5864 5864 5864 5864 5864 5864 5865
5888 5887 5886 5885 5885 5884 5883 5883 5882 5881 5881 5880 5879 5878 5878 5877 5876 5874 5874 5873 5872 5871 5871 5871 5870 5870 5869 5868 5867 5866 5865 5864 5864 5863 5862 5861 5861 5861 5861 5861 5861 5861 5861
5888 5887 5886 5885 5885 5884 5883 5882 5882 5881 5880 5879 5878 5877 5876 5875 5874 5873 5872 5871 5870 5869 5869 5869 5868 5867 5866 5864 5864 5863 5862 5861 5860 5860 5859 5858 5858 5857 5857 5857 5857 5857 5857
5887 5887 5886 5885 5885 5884 5883 5882 5881 5880 5879 5878 5876 5875 5874 5873 5872 5871 5870 5869 5868 5867 5866 5865 5865 5864 5862 5861 5861 5859 5858 5858 5857 5856 5856 5855 5854 5854 5853 5853 5853 5853 5853
5887 5887 5886 5885 5884 5883 5882 5881 5879 5878 5877 5876 5875 5873 5872 5871 5870 5869 5868 5867 5866 5864 5864 5862 5862 5860 5859 5858 5857 5855 5854 5854 5854 5853 5852 5851 5851 5850 5849 5849 5849 5849 5849
5887 5886 5885 5884 5883 5882 5881 5879 5878 5876 5875 5874 5872 5871 5870 5868 5867 5866 5865 5864 5863 5862 5861 5860 5859 5858 5857 5855 5854 5852 5851 5851 5850 5849 5848 5848 5847 5846 5845 5845 5845 5845 5845
5885 5884 5883 5882 5881 5880 5878 5877 5876 5874 5873 5871 5870 5868 5867 5865 5865 5864 5862 5861 5860 5859 5857 5856 5855 5854 5853 5852 5851 5849 5848 5847 5846 5845 5845 5844 5843 5842 5841 5841 5841 5841 5841
5883 5882 5881 5880 5879 5877 5876 5875 5874 5872 5870 5869 5867 5865 5864 5863 5861 5860 5859 5858 5856 5855 5854 5853 5851 5850 5850 5849 5847 5846 5845 5843 5842 5841 5840 5839 5839 5838 5837 5836 5836 5836 5836
5881 5879 5878 5877 5876 5875 5874 5872 5871 5869 5867 5866 5864 5863 5861 5859 5858 5856 5854 5853 5852 5851 5849 5848 5847 5846 5845 5844 5843 5842 5841 5840 5838 5837 5836 5835 5834 5833 5832 5832 5831 5831 5831
5878 5877 5876 5875 5873 5872 5871 5869 5868 5866 5864 5863 5861 5859 5857 5856 5854 5853 5851 5849 5848 5846 5845 5843 5842 5841 5840 5840 5839 5838 5836 5835 5834 5832 5831 5830 5829 5828 5828 5827 5826 5826 5826
5875 5874 5873 5872 5870 5869 5868 5866 5864 5863 5861 5859 5857 5855 5853 5851 5850 5848 5847 5845 5843 5842 5840 5839 5837 5836 5835 5834 5833 5832 5831 5830 5828 5827 5826 5825 5824 5823 5823 5822 5822 5821 5821
5873 5871 5870 5868 5867 5866 5864 5862 5861 5859 5857 5855 5853 5851 5849 5847 5845 5843 5842 5840 5838 5836 5835 5834 5832 5831 5829 5828 5827 5826 5825 5824 5823 5821 5821 5820 5819 5818 5817 5817 5816 5816 5816
5869 5868 5866 5865 5863 5862 5860 5858 5856 5854 5852 5850 5848 5846 5844 5842 5840 5838 5837 5835 5833 5831 5830 5828 5827 5825 5824 5822 5821 5820 5818 5817 5816 5815 5814 5813 5813 5812 5811 5811 5810 5810 5810
5866 5864 5863 5861 5859 5857 5855 5854 5852 5849 5847 5845 5843 5841 5839 5837 5835 5833 5831 5829 5827 5825 5824 5822 5821 5819 5818 5816 5815 5813 5812 5810 5809 5808 5808 5807 5806 5806 5805 5804 5804 5804 5804
5861 5860 5858 5856 5854 5852 5850 5849 5846 5844 5842 5840 5838 5835 5833 5831 5829 5827 5825 5823 5821 5819 5817 5816 5815 5813 5812 5810 5808 5807 5806 5804 5803 5802 5801 5800 5799 5799 5798 5798 5797 5797 5797
5856 5854 5853 5851 5849 5847 5845 5843 5841 5839 5836 5834 5832 5829 5827 5825 5823 5820 5818 5816 5814 5812 5811 5809 5808 5807 5805 5803 5802 5800 5799 5797 5796 5794 5794 5793 5793 5792 5791 5791 5791 5791 5790
5850 5849 5847 5845 5844 5842 5839 5837 5835 5833 5830 5828 5825 5823 5821 5818 5816 5814 5812 5810 5808 5805 5804 5802 5801 5799 5798 5796 5794 5792 5791 5790 5789 5789 5787 5786 5786 5785 5784 5784 5784 5783 5783
5844 5843 5841 5839 5838 5836 5834 5831 5829 5827 5824 5822 5819 5817 5814 5812 5810 5808 5805 5803 5801 5799 5797 5795 5793 5792 5790 5789 5787 5785 5784 5782 5781 5781 5780 5779 5778 5778 5777 5776 5776 5776 5775
5838 5836 5835 5833 5831 5829 5827 5825 5823 5820 5818 5815 5813 5810 5808 5806 5804 5801 5799 5796 5794 5792 5790 5788 5786 5784 5782 5781 5779 5778 5776 5775 5774 5773 5772 5771 5770 5770 5769 5768 5768 5768 5767
5831 5830 5828 5826 5825 5823 5820 5818 5816 5814 5811 5809 5806 5804 5802 5800 5797 5795 5792 5790 5787 5785 5782 5780 5778 5776 5774 5773 5771 5770 5768 5767 5766 5765 5764 5763 5762 5761 5761 5760 5760 5759 5759
5824 5822 5821 5819 5817 5815 5813 5811 5809 5807 5804 5802 5800 5798 5795 5793 5791 5788 5785 5783 5780 5777 5775 5773 5771 5769 5767 5764 5763 5761 5760 5758 5757 5757 5756 5755 5754 5753 5753 5752 5752 5751 5751